| time (UTC) | temp F | wind direction | speed MPH | gust MPH | rain 1hr in | rain 24hr in | rain mn in | humidity % | barometer mb |
| 20260504141136 | 66 | 188 | 1.0 | 1.0 | 0.00 | 0.00 | 0.00 | 43 | 1013.3 |
| 20260504140633 | 66 | 235 | 1.0 | 2.0 | 0.00 | 0.00 | 0.00 | 44 | 1013.4 |
| 20260504140129 | 65 | 179 | 1.0 | 1.0 | 0.00 | 0.00 | 0.00 | 45 | 1013.5 |
| 20260504130556 | 60 | 324 | 4.0 | 7.0 | 0.00 | 0.00 | 0.00 | 45 | 1013.9 |
| 20260504110444 | 43 | 210 | 0.0 | 0.0 | 0.00 | 0.00 | 0.00 | 73 | 1014.4 |
| 20260504100401 | 42 | 192 | 0.0 | 0.0 | 0.00 | 0.00 | 0.00 | 74 | 1014.1 |
| 20260504081754 | 43 | 189 | 1.0 | 1.0 | 0.00 | 0.00 | 0.00 | 70 | 1013.6 |
| 20260504081251 | 43 | 189 | 1.0 | 1.0 | 0.00 | 0.00 | 0.00 | 70 | 1013.8 |
| 20260504080747 | 43 | 189 | 1.0 | 1.0 | 0.00 | 0.00 | 0.00 | 70 | 1013.8 |
| 20260504080244 | 43 | 189 | 1.0 | 1.0 | 0.00 | 0.00 | 0.00 | 70 | 1013.8 |
| 20260504070211 | 45 | 183 | 1.0 | 1.0 | 0.00 | 0.00 | 0.00 | 64 | 1013.4 |
| 20260504060132 | 45 | 210 | 0.0 | 0.0 | 0.00 | 0.00 | 0.00 | 64 | 1013.6 |
| 20260504050600 | 46 | 239 | 0.0 | 0.0 | 0.00 | 0.00 | 0.00 | 64 | 1013.1 |
| 20260504045554 | 45 | 206 | 0.0 | 1.0 | 0.00 | 0.00 | 0.00 | 64 | 1013.4 |
| 20260504045049 | 45 | 206 | 0.0 | 1.0 | 0.00 | 0.00 | 0.00 | 64 | 1013.2 |
| 20260504044547 | 45 | 188 | 0.0 | 0.0 | 0.00 | 0.00 | 0.00 | 64 | 1013.1 |
| 20260504044043 | 45 | 234 | 0.0 | 0.0 | 0.00 | 0.00 | 0.00 | 65 | 1013.3 |
| 20260504043540 | 45 | 203 | 0.0 | 0.0 | 0.00 | 0.00 | 0.00 | 66 | 1013.2 |
| 20260504043038 | 44 | 203 | 0.0 | 0.0 | 0.00 | 0.00 | 0.00 | 66 | 1013.0 |
| 20260504042535 | 44 | 199 | 0.0 | 0.0 | 0.00 | 0.00 | 0.00 | 66 | 1012.9 |
| 20260504042032 | 45 | 199 | 0.0 | 0.0 | 0.00 | 0.00 | 0.00 | 66 | 1012.9 |
| 20260504041527 | 44 | 199 | 0.0 | 0.0 | 0.00 | 0.00 | 0.00 | 67 | 1013.1 |
| 20260504041024 | 44 | 199 | 0.0 | 0.0 | 0.00 | 0.00 | 0.00 | 66 | 1012.9 |
| 20260504040521 | 45 | 199 | 0.0 | 0.0 | 0.00 | 0.00 | 0.00 | 66 | 1012.7 |
| 20260504040018 | 44 | 199 | 0.0 | 0.0 | 0.00 | 0.00 | 0.00 | 66 | 1012.8 |
| 20260504035515 | 45 | 199 | 0.0 | 0.0 | 0.00 | 0.00 | 0.00 | 66 | 1012.6 |
| 20260504035011 | 45 | 199 | 0.0 | 0.0 | 0.00 | 0.00 | 0.00 | 65 | 1012.7 |
| 20260504034509 | 45 | 199 | 0.0 | 0.0 | 0.00 | 0.00 | 0.00 | 66 | 1012.9 |
| 20260504034006 | 45 | 199 | 0.0 | 0.0 | 0.00 | 0.00 | 0.00 | 67 | 1012.7 |
| 20260504033504 | 45 | 199 | 0.0 | 0.0 | 0.00 | 0.00 | 0.00 | 68 | 1012.7 |
| 20260504033001 | 44 | 199 | 0.0 | 0.0 | 0.00 | 0.00 | 0.00 | 69 | 1012.7 |
| 20260504032457 | 44 | 199 | 0.0 | 0.0 | 0.00 | 0.00 | 0.00 | 69 | 1012.7 |
| 20260504031954 | 45 | 199 | 0.0 | 0.0 | 0.00 | 0.00 | 0.00 | 68 | 1012.7 |
| 20260504031451 | 44 | 199 | 0.0 | 0.0 | 0.00 | 0.00 | 0.00 | 68 | 1012.7 |
| 20260504030948 | 44 | 199 | 0.0 | 0.0 | 0.00 | 0.00 | 0.00 | 67 | 1012.6 |
| 20260504030445 | 44 | 199 | 0.0 | 0.0 | 0.00 | 0.00 | 0.00 | 67 | 1012.6 |
| 20260504025940 | 45 | 199 | 0.0 | 0.0 | 0.00 | 0.00 | 0.00 | 66 | 1012.4 |
| 20260504025437 | 45 | 199 | 0.0 | 0.0 | 0.00 | 0.00 | 0.00 | 65 | 1012.6 |
| 20260504024935 | 45 | 199 | 0.0 | 0.0 | 0.00 | 0.00 | 0.00 | 64 | 1012.8 |
| 20260504024432 | 45 | 199 | 0.0 | 0.0 | 0.00 | 0.00 | 0.00 | 65 | 1012.8 |
| 20260504023929 | 45 | 199 | 0.0 | 0.0 | 0.00 | 0.00 | 0.00 | 66 | 1012.7 |
| 20260504023425 | 46 | 199 | 0.0 | 0.0 | 0.00 | 0.00 | 0.00 | 64 | 1012.7 |
| 20260504022921 | 46 | 199 | 0.0 | 0.0 | 0.00 | 0.00 | 0.00 | 62 | 1012.7 |
| 20260504022417 | 46 | 199 | 0.0 | 0.0 | 0.00 | 0.00 | 0.00 | 62 | 1012.8 |
| 20260504021914 | 46 | 199 | 0.0 | 0.0 | 0.00 | 0.00 | 0.00 | 62 | 1012.8 |
| 20260504021412 | 46 | 199 | 0.0 | 0.0 | 0.00 | 0.00 | 0.00 | 61 | 1012.6 |
| 20260504020909 | 46 | 199 | 0.0 | 0.0 | 0.00 | 0.00 | 0.00 | 62 | 1012.8 |
| 20260504020405 | 47 | 199 | 0.0 | 0.0 | 0.00 | 0.00 | 0.00 | 60 | 1012.6 |
| 20260504015901 | 47 | 199 | 0.0 | 0.0 | 0.00 | 0.00 | 0.00 | 59 | 1012.7 |
| 20260504015357 | 48 | 199 | 0.0 | 0.0 | 0.00 | 0.00 | 0.00 | 58 | 1012.6 |
| 20260504014854 | 48 | 199 | 0.0 | 0.0 | 0.00 | 0.00 | 0.00 | 56 | 1012.6 |
| 20260504014350 | 47 | 199 | 0.0 | 0.0 | 0.00 | 0.00 | 0.00 | 57 | 1012.5 |
| 20260504013847 | 48 | 199 | 0.0 | 0.0 | 0.00 | 0.00 | 0.00 | 56 | 1012.4 |
| 20260504013345 | 48 | 199 | 0.0 | 0.0 | 0.00 | 0.00 | 0.00 | 56 | 1012.3 |
| 20260504012841 | 48 | 199 | 0.0 | 0.0 | 0.00 | 0.00 | 0.00 | 55 | 1012.5 |
| 20260504012339 | 49 | 199 | 0.0 | 0.0 | 0.00 | 0.00 | 0.00 | 55 | 1012.3 |
| 20260504011837 | 50 | 199 | 0.0 | 0.0 | 0.00 | 0.00 | 0.00 | 52 | 1012.3 |
| 20260504011333 | 50 | 199 | 0.0 | 0.0 | 0.00 | 0.00 | 0.00 | 53 | 1012.4 |
| 20260504010829 | 50 | 199 | 0.0 | 0.0 | 0.00 | 0.00 | 0.00 | 53 | 1012.3 |
| 20260504010325 | 50 | 199 | 0.0 | 0.0 | 0.00 | 0.00 | 0.00 | 51 | 1012.2 |
| 20260504005822 | 51 | 199 | 0.0 | 0.0 | 0.00 | 0.00 | 0.00 | 49 | 1011.9 |
| 20260504005319 | 51 | 199 | 0.0 | 0.0 | 0.00 | 0.00 | 0.00 | 47 | 1012.2 |
| 20260504004816 | 51 | 199 | 0.0 | 0.0 | 0.00 | 0.00 | 0.00 | 47 | 1012.2 |
| 20260504004314 | 52 | 199 | 0.0 | 0.0 | 0.00 | 0.00 | 0.00 | 44 | 1012.0 |
| 20260504003810 | 53 | 199 | 0.0 | 0.0 | 0.00 | 0.00 | 0.00 | 42 | 1011.9 |
| 20260504003307 | 54 | 199 | 0.0 | 0.0 | 0.00 | 0.00 | 0.00 | 42 | 1011.8 |
| 20260504002803 | 55 | 199 | 0.0 | 0.0 | 0.00 | 0.00 | 0.00 | 40 | 1011.7 |
| 20260504002300 | 55 | 200 | 0.0 | 0.0 | 0.00 | 0.00 | 0.00 | 39 | 1011.7 |
| 20260504001757 | 56 | 197 | 0.0 | 0.0 | 0.00 | 0.00 | 0.00 | 38 | 1011.8 |
| 20260504001254 | 56 | 188 | 0.0 | 1.0 | 0.00 | 0.00 | 0.00 | 38 | 1011.5 |
| 20260504000751 | 56 | 337 | 1.0 | 1.0 | 0.00 | 0.00 | 0.00 | 38 | 1011.5 |
| 20260504000248 | 56 | 353 | 0.0 | 1.0 | 0.00 | 0.00 | 0.00 | 37 | 1011.4 |
| 20260503235746 | 56 | 210 | 0.0 | 0.0 | 0.00 | 0.00 | 0.00 | 38 | 1011.2 |
| 20260503235243 | 57 | 352 | 0.0 | 0.0 | 0.00 | 0.00 | 0.00 | 37 | 1011.5 |
| 20260503234741 | 57 | 305 | 1.0 | 2.0 | 0.00 | 0.00 | 0.00 | 36 | 1011.2 |
| 20260503234239 | 57 | 65 | 0.0 | 0.0 | 0.00 | 0.00 | 0.00 | 36 | 1011.2 |
| 20260503233736 | 57 | 307 | 0.0 | 0.0 | 0.00 | 0.00 | 0.00 | 36 | 1011.1 |
| 20260503233231 | 57 | 14 | 1.0 | 1.0 | 0.00 | 0.00 | 0.00 | 36 | 1011.0 |
| 20260503232723 | 58 | 336 | 0.0 | 0.0 | 0.00 | 0.00 | 0.00 | 35 | 1011.0 |
| 20260503232220 | 58 | 302 | 4.0 | 6.0 | 0.00 | 0.00 | 0.00 | 34 | 1011.0 |
| 20260503231718 | 58 | 330 | 1.0 | 1.0 | 0.00 | 0.00 | 0.00 | 34 | 1010.9 |
| 20260503231215 | 58 | 109 | 0.0 | 1.0 | 0.00 | 0.00 | 0.00 | 36 | 1010.9 |
| 20260503230711 | 59 | 109 | 0.0 | 0.0 | 0.00 | 0.00 | 0.00 | 34 | 1011.0 |
| 20260503230208 | 59 | 307 | 1.0 | 2.0 | 0.00 | 0.00 | 0.00 | 34 | 1010.8 |
| 20260503225705 | 59 | 16 | 0.0 | 1.0 | 0.00 | 0.00 | 0.00 | 34 | 1010.9 |
| 20260503225200 | 59 | 292 | 3.0 | 8.0 | 0.00 | 0.00 | 0.00 | 33 | 1010.8 |
| 20260503224657 | 59 | 326 | 4.0 | 5.0 | 0.00 | 0.00 | 0.00 | 32 | 1010.5 |
| 20260503224155 | 60 | 261 | 3.0 | 6.0 | 0.00 | 0.00 | 0.00 | 32 | 1010.7 |
| 20260503223653 | 60 | 345 | 1.0 | 2.0 | 0.00 | 0.00 | 0.00 | 33 | 1010.5 |
| 20260503223149 | 60 | 331 | 4.0 | 6.0 | 0.00 | 0.00 | 0.00 | 32 | 1010.5 |
| 20260503222646 | 60 | 331 | 5.0 | 6.0 | 0.00 | 0.00 | 0.00 | 32 | 1010.6 |
| 20260503222144 | 60 | 318 | 5.0 | 7.0 | 0.00 | 0.00 | 0.00 | 31 | 1010.8 |
| 20260503221642 | 60 | 16 | 5.0 | 8.0 | 0.00 | 0.00 | 0.00 | 32 | 1010.7 |
| 20260503221139 | 60 | 357 | 4.0 | 5.0 | 0.00 | 0.00 | 0.00 | 31 | 1010.6 |
| 20260503220636 | 60 | 357 | 1.0 | 1.0 | 0.00 | 0.00 | 0.00 | 32 | 1010.5 |
| 20260503220133 | 59 | 46 | 1.0 | 1.0 | 0.00 | 0.00 | 0.00 | 32 | 1010.6 |
| 20260503215630 | 60 | 28 | 1.0 | 1.0 | 0.00 | 0.00 | 0.00 | 31 | 1010.7 |
| 20260503215126 | 60 | 320 | 6.0 | 6.0 | 0.00 | 0.00 | 0.00 | 30 | 1010.7 |
| 20260503214625 | 60 | 323 | 1.0 | 2.0 | 0.00 | 0.00 | 0.00 | 31 | 1010.6 |
| 20260503214121 | 60 | 71 | 3.0 | 3.0 | 0.00 | 0.00 | 0.00 | 30 | 1010.7 |
| 20260503213620 | 60 | 327 | 4.0 | 7.0 | 0.00 | 0.00 | 0.00 | 31 | 1010.6 |
| 20260503213116 | 60 | 64 | 1.0 | 1.0 | 0.00 | 0.00 | 0.00 | 31 | 1010.5 |
| 20260503212614 | 60 | 7 | 4.0 | 6.0 | 0.00 | 0.00 | 0.00 | 30 | 1010.4 |
| 20260503212111 | 60 | 288 | 5.0 | 7.0 | 0.00 | 0.00 | 0.00 | 30 | 1010.7 |
| 20260503211609 | 60 | 352 | 8.0 | 10.0 | 0.00 | 0.00 | 0.00 | 30 | 1010.4 |
| 20260503211103 | 60 | 55 | 5.0 | 8.0 | 0.00 | 0.00 | 0.00 | 30 | 1010.8 |
| 20260503210600 | 60 | 346 | 1.0 | 2.0 | 0.00 | 0.00 | 0.00 | 31 | 1010.7 |
| 20260503210056 | 61 | 349 | 5.0 | 7.0 | 0.00 | 0.00 | 0.00 | 29 | 1010.6 |
| 20260503205553 | 61 | 21 | 1.0 | 2.0 | 0.00 | 0.00 | 0.00 | 29 | 1010.6 |
| 20260503205049 | 61 | 357 | 1.0 | 2.0 | 0.00 | 0.00 | 0.00 | 30 | 1010.5 |
| 20260503204546 | 62 | 333 | 3.0 | 3.0 | 0.00 | 0.00 | 0.00 | 30 | 1010.6 |
| 20260503204043 | 61 | 324 | 2.0 | 3.0 | 0.00 | 0.00 | 0.00 | 31 | 1010.5 |
| 20260503203541 | 59 | 11 | 3.0 | 6.0 | 0.00 | 0.00 | 0.00 | 32 | 1010.7 |
| 20260503203037 | 60 | 308 | 2.0 | 2.0 | 0.00 | 0.00 | 0.00 | 31 | 1010.6 |
| 20260503202536 | 59 | 5 | 2.0 | 3.0 | 0.00 | 0.00 | 0.00 | 33 | 1010.8 |
| 20260503202033 | 59 | 43 | 3.0 | 3.0 | 0.00 | 0.00 | 0.00 | 32 | 1010.9 |
| 20260503201532 | 59 | 352 | 2.0 | 3.0 | 0.00 | 0.00 | 0.00 | 33 | 1010.9 |
| 20260503201028 | 60 | 279 | 4.0 | 5.0 | 0.00 | 0.00 | 0.00 | 32 | 1011.0 |
| 20260503200524 | 59 | 17 | 5.0 | 7.0 | 0.00 | 0.00 | 0.00 | 32 | 1011.0 |
| 20260503200015 | 60 | 298 | 4.0 | 5.0 | 0.00 | 0.00 | 0.00 | 32 | 1011.2 |
| 20260503195512 | 60 | 312 | 2.0 | 2.0 | 0.00 | 0.00 | 0.00 | 33 | 1011.0 |
| 20260503195009 | 58 | 125 | 1.0 | 1.0 | 0.00 | 0.00 | 0.00 | 34 | 1011.1 |
| 20260503194506 | 59 | 67 | 3.0 | 3.0 | 0.00 | 0.00 | 0.00 | 32 | 1011.1 |
| 20260503194006 | 58 | 21 | 5.0 | 6.0 | 0.00 | 0.00 | 0.00 | 32 | 1011.1 |
| 20260503193502 | 57 | 62 | 1.0 | 2.0 | 0.00 | 0.00 | 0.00 | 36 | 1011.2 |
| 20260503192958 | 58 | 355 | 3.0 | 5.0 | 0.00 | 0.00 | 0.00 | 33 | 1011.4 |
| 20260503192455 | 57 | 303 | 5.0 | 7.0 | 0.00 | 0.00 | 0.00 | 33 | 1011.3 |
| 20260503191950 | 58 | 3 | 3.0 | 7.0 | 0.00 | 0.00 | 0.00 | 33 | 1011.5 |
| 20260503191448 | 59 | 278 | 2.0 | 2.0 | 0.00 | 0.00 | 0.00 | 34 | 1011.3 |
| 20260503190944 | 60 | 95 | 1.0 | 2.0 | 0.00 | 0.00 | 0.00 | 33 | 1011.3 |
| 20260503190442 | 59 | 357 | 2.0 | 3.0 | 0.00 | 0.00 | 0.00 | 33 | 1011.5 |
| 20260503185939 | 59 | 320 | 7.0 | 11.0 | 0.00 | 0.00 | 0.00 | 33 | 1011.5 |
| 20260503185435 | 57 | 319 | 5.0 | 11.0 | 0.00 | 0.00 | 0.00 | 35 | 1011.4 |
| 20260503184934 | 57 | 192 | 3.0 | 3.0 | 0.00 | 0.00 | 0.00 | 36 | 1011.4 |
| 20260503184431 | 58 | 56 | 4.0 | 5.0 | 0.00 | 0.00 | 0.00 | 36 | 1011.6 |
| 20260503183927 | 57 | 317 | 5.0 | 7.0 | 0.00 | 0.00 | 0.00 | 35 | 1011.7 |
| 20260503183424 | 56 | 175 | 3.0 | 3.0 | 0.00 | 0.00 | 0.00 | 36 | 1011.5 |
| 20260503182921 | 56 | 6 | 5.0 | 7.0 | 0.00 | 0.00 | 0.00 | 35 | 1011.8 |
| 20260503182420 | 57 | 59 | 1.0 | 1.0 | 0.00 | 0.00 | 0.00 | 37 | 1011.7 |
| 20260503181917 | 57 | 322 | 4.0 | 6.0 | 0.00 | 0.00 | 0.00 | 36 | 1011.6 |
| 20260503181413 | 57 | 213 | 2.0 | 3.0 | 0.00 | 0.00 | 0.00 | 37 | 1011.7 |
| 20260503180910 | 56 | 275 | 1.0 | 2.0 | 0.00 | 0.00 | 0.00 | 37 | 1011.5 |
| 20260503180408 | 57 | 255 | 3.0 | 5.0 | 0.00 | 0.00 | 0.00 | 37 | 1011.7 |
| 20260503175904 | 58 | 17 | 3.0 | 5.0 | 0.00 | 0.00 | 0.00 | 36 | 1011.5 |
| 20260503175403 | 57 | 156 | 1.0 | 2.0 | 0.00 | 0.00 | 0.00 | 41 | 1011.8 |
| 20260503174858 | 56 | 291 | 5.0 | 7.0 | 0.00 | 0.00 | 0.00 | 37 | 1011.8 |
| 20260503174356 | 55 | 303 | 2.0 | 3.0 | 0.00 | 0.00 | 0.00 | 39 | 1012.1 |
| 20260503173851 | 55 | 264 | 3.0 | 3.0 | 0.00 | 0.00 | 0.00 | 40 | 1012.0 |
| 20260503173347 | 56 | 19 | 3.0 | 5.0 | 0.00 | 0.00 | 0.00 | 40 | 1012.1 |
| 20260503172844 | 55 | 260 | 5.0 | 6.0 | 0.00 | 0.00 | 0.00 | 38 | 1012.2 |
| 20260503172342 | 55 | 338 | 7.0 | 11.0 | 0.00 | 0.00 | 0.00 | 40 | 1012.2 |
| 20260503171838 | 55 | 298 | 4.0 | 5.0 | 0.00 | 0.00 | 0.00 | 40 | 1012.2 |
| 20260503171335 | 53 | 221 | 3.0 | 5.0 | 0.00 | 0.00 | 0.00 | 42 | 1012.2 |
| 20260503170832 | 54 | 249 | 3.0 | 5.0 | 0.00 | 0.00 | 0.00 | 41 | 1012.5 |
| 20260503170329 | 54 | 237 | 3.0 | 5.0 | 0.00 | 0.00 | 0.00 | 42 | 1012.4 |
| 20260503150720 | 51 | 308 | 5.0 | 7.0 | 0.00 | 0.00 | 0.00 | 44 | 1012.7 |
| 20260503150217 | 51 | 47 | 2.0 | 3.0 | 0.00 | 0.00 | 0.00 | 46 | 1012.9 |